Simultaneous Nadir Overpasses (SNOs) Predictions

Prediction of SNOs between LANDSAT-8 and METOP-A Satellite Orbit:

Table of predicted SNOs for the next 14.0 days since TLE Epoch: 10/13/2018
Index Date (LANDSAT-8) Time (LANDSAT-8) Lat,Lon (LANDSAT-8) SZA (LANDSAT-8 ) Date (METOP-A) Time (METOP-A) Lat,Lon (METOP-A) SZA (METOP-A ) Distance(km) Time Diff (sec)
1 10/14/2018 21:06:50 -81.40, 88.05 87.43 10/14/2018 21:06:11 -81.41, 88.18 87.43 2.27 39
2 10/14/2018 21:56:16 81.40,-104.22 92.60 10/14/2018 21:56:51 81.41,-104.12 92.63 1.93 35
3 10/17/2018 16:41:05 -81.40, 154.62 86.37 10/17/2018 16:40:26 -81.41, 154.60 86.38 0.41 39
4 10/17/2018 17:30:31 81.41, -37.67 93.66 10/17/2018 17:31:06 81.41, -37.70 93.68 0.70 35
5 10/20/2018 12:15:21 -81.41,-138.82 85.32 10/20/2018 12:14:42 -81.41,-138.99 85.36 2.74 39
6 10/20/2018 13:04:47 81.41, 28.87 94.70 10/20/2018 13:05:22 81.41, 28.69 94.70 2.97 35
7 10/23/2018 07:49:37 -81.41, -72.30 84.31 10/23/2018 07:48:57 -81.41, -72.20 84.32 1.72 40
8 10/23/2018 08:39:03 81.42, 95.38 95.72 10/23/2018 08:39:37 81.41, 95.46 95.74 1.44 34
9 10/26/2018 03:23:53 -81.42, -5.80 83.32 10/26/2018 03:23:13 -81.41, -5.82 83.35 0.92 40




NCC Satellite Simultaneous Nadir Overpasses (SNOs) Prediction Service
